| time (UTC) | temp C | wind direction | speed KPH | gust KPH | rain 1hr cm | rain 24hr cm | rain mn cm | humidity % | barometer mb |
| 20260502163206 | 18 | 256 | 1.6 | 8.0 | 0.00 | 0.00 | 0.00 | 57 | 1013.3 |
| 20260502162705 | 18 | 260 | 4.8 | 11.3 | 0.00 | 0.00 | 0.00 | 56 | 1013.3 |
| 20260502162205 | 18 | 278 | 4.8 | 12.9 | 0.00 | 0.00 | 0.00 | 55 | 1013.4 |
| 20260502161705 | 18 | 254 | 4.8 | 12.9 | 0.00 | 0.00 | 0.00 | 54 | 1013.4 |
| 20260502161205 | 18 | 268 | 3.2 | 9.7 | 0.00 | 0.00 | 0.00 | 53 | 1013.4 |
| 20260502160205 | 18 | 234 | 3.2 | 14.5 | 0.00 | 0.00 | 0.00 | 51 | 1013.5 |
| 20260502152205 | 20 | 292 | 8.0 | 19.3 | 0.00 | 0.00 | 0.00 | 45 | 1013.8 |
| 20260502151705 | 20 | 259 | 9.7 | 19.3 | 0.00 | 0.00 | 0.00 | 45 | 1013.9 |
| 20260502151205 | 21 | 286 | 8.0 | 19.3 | 0.00 | 0.00 | 0.00 | 45 | 1013.8 |
| 20260502150705 | 21 | 283 | 11.3 | 19.3 | 0.00 | 0.00 | 0.00 | 46 | 1013.8 |
| 20260502150205 | 21 | 284 | 8.0 | 22.5 | 0.00 | 0.00 | 0.00 | 48 | 1013.9 |
| 20260502130205 | 26 | 215 | 11.3 | 29.0 | 0.00 | 0.00 | 0.00 | 31 | 1014.4 |
| 20260502123705 | 25 | 234 | 14.5 | 25.7 | 0.00 | 0.00 | 0.00 | 36 | 1014.5 |
| 20260502123206 | 25 | 207 | 14.5 | 24.1 | 0.00 | 0.00 | 0.00 | 35 | 1014.6 |
| 20260502122705 | 25 | 219 | 9.7 | 27.4 | 0.00 | 0.00 | 0.00 | 36 | 1014.6 |
| 20260502122205 | 25 | 233 | 11.3 | 24.1 | 0.00 | 0.00 | 0.00 | 37 | 1014.6 |
| 20260502121705 | 25 | 231 | 11.3 | 24.1 | 0.00 | 0.00 | 0.00 | 37 | 1014.7 |
| 20260502121205 | 25 | 231 | 14.5 | 27.4 | 0.00 | 0.00 | 0.00 | 39 | 1014.8 |
| 20260502120705 | 25 | 189 | 9.7 | 24.1 | 0.00 | 0.00 | 0.00 | 40 | 1014.7 |
| 20260502120205 | 25 | 214 | 11.3 | 19.3 | 0.00 | 0.00 | 0.00 | 42 | 1014.8 |
| 20260502114704 | 25 | 211 | 11.3 | 24.1 | 0.00 | 0.00 | 0.00 | 42 | 1015.0 |
| 20260502114205 | 24 | 216 | 11.3 | 20.9 | 0.00 | 0.00 | 0.00 | 44 | 1015.0 |
| 20260502113705 | 24 | 202 | 11.3 | 22.5 | 0.00 | 0.00 | 0.00 | 44 | 1015.1 |
| 20260502113205 | 24 | 201 | 14.5 | 27.4 | 0.00 | 0.00 | 0.00 | 43 | 1015.1 |
| 20260502112705 | 24 | 199 | 9.7 | 25.7 | 0.00 | 0.00 | 0.00 | 44 | 1015.2 |
| 20260502112204 | 24 | 215 | 11.3 | 22.5 | 0.00 | 0.00 | 0.00 | 46 | 1015.2 |
| 20260502111205 | 24 | 210 | 8.0 | 19.3 | 0.00 | 0.00 | 0.00 | 45 | 1015.2 |
| 20260502110705 | 24 | 194 | 11.3 | 22.5 | 0.00 | 0.00 | 0.00 | 44 | 1015.3 |
| 20260502110205 | 24 | 176 | 11.3 | 19.3 | 0.00 | 0.00 | 0.00 | 45 | 1015.3 |
| 20260502105704 | 24 | 195 | 8.0 | 20.9 | 0.00 | 0.00 | 0.00 | 44 | 1015.4 |
| 20260502105205 | 23 | 212 | 9.7 | 19.3 | 0.00 | 0.00 | 0.00 | 43 | 1015.4 |
| 20260502104705 | 24 | 218 | 9.7 | 19.3 | 0.00 | 0.00 | 0.00 | 43 | 1015.5 |
| 20260502104205 | 24 | 216 | 12.9 | 22.5 | 0.00 | 0.00 | 0.00 | 41 | 1015.5 |
| 20260502103705 | 23 | 233 | 9.7 | 19.3 | 0.00 | 0.00 | 0.00 | 42 | 1015.4 |
| 20260502102705 | 23 | 205 | 9.7 | 19.3 | 0.00 | 0.00 | 0.00 | 44 | 1015.6 |
| 20260502102205 | 23 | 225 | 11.3 | 22.5 | 0.00 | 0.00 | 0.00 | 45 | 1015.7 |
| 20260502101205 | 23 | 214 | 11.3 | 20.9 | 0.00 | 0.00 | 0.00 | 44 | 1015.7 |
| 20260502100705 | 23 | 197 | 11.3 | 24.1 | 0.00 | 0.00 | 0.00 | 44 | 1015.8 |
| 20260502100205 | 23 | 215 | 12.9 | 24.1 | 0.00 | 0.00 | 0.00 | 44 | 1015.8 |
| 20260502091205 | 22 | 232 | 11.3 | 19.3 | 0.00 | 0.00 | 0.00 | 46 | 1016.1 |
| 20260502090705 | 22 | 227 | 8.0 | 20.9 | 0.00 | 0.00 | 0.00 | 46 | 1016.2 |
| 20260502071205 | 18 | 194 | 6.4 | 19.3 | 0.00 | 0.00 | 0.00 | 59 | 1017.1 |
| 20260502070705 | 18 | 196 | 8.0 | 20.9 | 0.00 | 0.00 | 0.00 | 59 | 1017.0 |
| 20260502070205 | 18 | 201 | 8.0 | 16.1 | 0.00 | 0.00 | 0.00 | 61 | 1017.0 |
| 20260502065705 | 17 | 171 | 4.8 | 11.3 | 0.00 | 0.00 | 0.00 | 63 | 1017.0 |
| 20260502065205 | 17 | 200 | 8.0 | 16.1 | 0.00 | 0.00 | 0.00 | 64 | 1017.0 |
| 20260502064705 | 17 | 189 | 6.4 | 14.5 | 0.00 | 0.00 | 0.00 | 63 | 1017.1 |
| 20260502064205 | 16 | 180 | 6.4 | 16.1 | 0.00 | 0.00 | 0.00 | 65 | 1017.0 |
| 20260502063705 | 16 | 192 | 6.4 | 12.9 | 0.00 | 0.00 | 0.00 | 67 | 1017.0 |
| 20260502063206 | 16 | 174 | 6.4 | 11.3 | 0.00 | 0.00 | 0.00 | 67 | 1017.1 |
| 20260502062705 | 15 | 186 | 6.4 | 12.9 | 0.00 | 0.00 | 0.00 | 69 | 1017.1 |
| 20260502062204 | 15 | 178 | 8.0 | 12.9 | 0.00 | 0.00 | 0.00 | 69 | 1017.1 |
| 20260502061205 | 14 | 177 | 8.0 | 11.3 | 0.00 | 0.00 | 0.00 | 72 | 1017.3 |
| 20260502060704 | 14 | 171 | 6.4 | 14.5 | 0.00 | 0.00 | 0.00 | 72 | 1017.2 |
| 20260502060205 | 14 | 179 | 4.8 | 9.7 | 0.00 | 0.00 | 0.00 | 72 | 1017.2 |
| 20260502055705 | 13 | 161 | 6.4 | 9.7 | 0.00 | 0.00 | 0.00 | 73 | 1017.3 |
| 20260502055205 | 13 | 181 | 4.8 | 9.7 | 0.00 | 0.00 | 0.00 | 74 | 1017.3 |
| 20260502054705 | 13 | 186 | 6.4 | 12.9 | 0.00 | 0.00 | 0.00 | 74 | 1017.3 |
| 20260502054205 | 13 | 180 | 4.8 | 9.7 | 0.00 | 0.00 | 0.00 | 75 | 1017.2 |
| 20260502053705 | 12 | 183 | 4.8 | 11.3 | 0.00 | 0.00 | 0.00 | 75 | 1017.2 |
| 20260502053205 | 12 | 172 | 4.8 | 9.7 | 0.00 | 0.00 | 0.00 | 76 | 1017.3 |
| 20260502052205 | 12 | 178 | 4.8 | 9.7 | 0.00 | 0.00 | 0.00 | 77 | 1017.3 |
| 20260502051705 | 11 | 175 | 4.8 | 12.9 | 0.00 | 0.00 | 0.00 | 78 | 1017.3 |
| 20260502051205 | 11 | 187 | 4.8 | 11.3 | 0.00 | 0.00 | 0.00 | 78 | 1017.3 |
| 20260502050705 | 11 | 181 | 4.8 | 9.7 | 0.00 | 0.00 | 0.00 | 79 | 1017.3 |
| 20260502050205 | 11 | 171 | 4.8 | 11.3 | 0.00 | 0.00 | 0.00 | 79 | 1017.3 |
| 20260502045705 | 10 | 176 | 6.4 | 12.9 | 0.00 | 0.00 | 0.00 | 80 | 1017.3 |
| 20260502044705 | 10 | 173 | 4.8 | 11.3 | 0.00 | 0.00 | 0.00 | 82 | 1017.3 |
| 20260502044205 | 9 | 177 | 1.6 | 8.0 | 0.00 | 0.00 | 0.00 | 83 | 1017.4 |
| 20260502043705 | 8 | 170 | 4.8 | 8.0 | 0.00 | 0.00 | 0.00 | 84 | 1017.4 |
| 20260502043205 | 8 | 158 | 4.8 | 9.7 | 0.00 | 0.00 | 0.00 | 85 | 1017.4 |
| 20260502042705 | 8 | 175 | 3.2 | 8.0 | 0.00 | 0.00 | 0.00 | 86 | 1017.5 |
| 20260502041205 | 7 | 144 | 3.2 | 4.8 | 0.00 | 0.00 | 0.00 | 87 | 1017.4 |
| 20260502040705 | 7 | 131 | 1.6 | 4.8 | 0.00 | 0.00 | 0.00 | 87 | 1017.5 |
| 20260502040204 | 7 | 130 | 1.6 | 4.8 | 0.00 | 0.00 | 0.00 | 87 | 1017.5 |
| 20260502035205 | 7 | 109 | 1.6 | 4.8 | 0.00 | 0.00 | 0.00 | 88 | 1017.7 |
| 20260502034705 | 7 | 109 | 1.6 | 4.8 | 0.00 | 0.00 | 0.00 | 89 | 1017.7 |
| 20260502034205 | 7 | 109 | 3.2 | 3.2 | 0.00 | 0.00 | 0.00 | 89 | 1017.8 |
| 20260502033205 | 6 | 109 | 1.6 | 4.8 | 0.00 | 0.00 | 0.00 | 88 | 1017.9 |
| 20260502032705 | 6 | 108 | 0.0 | 0.0 | 0.00 | 0.00 | 0.00 | 88 | 1017.9 |
| 20260502032205 | 6 | 108 | 0.0 | 1.6 | 0.00 | 0.00 | 0.00 | 88 | 1018.0 |
| 20260502031705 | 6 | 108 | 1.6 | 3.2 | 0.00 | 0.00 | 0.00 | 88 | 1018.0 |
| 20260502031204 | 6 | 108 | 1.6 | 3.2 | 0.00 | 0.00 | 0.00 | 88 | 1018.1 |
| 20260502030205 | 7 | 108 | 1.6 | 3.2 | 0.00 | 0.00 | 0.00 | 88 | 1018.2 |
| 20260502025705 | 7 | 108 | 1.6 | 3.2 | 0.00 | 0.00 | 0.00 | 88 | 1018.3 |
| 20260502025206 | 7 | 108 | 1.6 | 3.2 | 0.00 | 0.00 | 0.00 | 88 | 1018.3 |
| 20260502024705 | 7 | 108 | 1.6 | 3.2 | 0.00 | 0.00 | 0.00 | 88 | 1018.4 |
| 20260502024205 | 7 | 108 | 0.0 | 0.0 | 0.00 | 0.00 | 0.00 | 88 | 1018.4 |
| 20260502023705 | 7 | 108 | 0.0 | 0.0 | 0.00 | 0.00 | 0.00 | 88 | 1018.5 |
| 20260502023205 | 7 | 108 | 0.0 | 0.0 | 0.00 | 0.00 | 0.00 | 88 | 1018.5 |
| 20260502022705 | 7 | 108 | 0.0 | 0.0 | 0.00 | 0.00 | 0.00 | 88 | 1018.6 |
| 20260502021205 | 7 | 108 | 0.0 | 0.0 | 0.00 | 0.00 | 0.00 | 86 | 1018.8 |
| 20260502020705 | 7 | 108 | 0.0 | 0.0 | 0.00 | 0.00 | 0.00 | 86 | 1018.9 |
| 20260502020205 | 7 | 108 | 0.0 | 0.0 | 0.00 | 0.00 | 0.00 | 86 | 1019.0 |
| 20260502015205 | 7 | 108 | 0.0 | 0.0 | 0.00 | 0.00 | 0.00 | 85 | 1019.1 |
| 20260502014705 | 7 | 108 | 0.0 | 0.0 | 0.00 | 0.00 | 0.00 | 85 | 1019.1 |
| 20260502014205 | 7 | 108 | 0.0 | 0.0 | 0.00 | 0.00 | 0.00 | 85 | 1019.2 |
| 20260502013705 | 7 | 108 | 0.0 | 3.2 | 0.00 | 0.00 | 0.00 | 85 | 1019.3 |
| 20260502013205 | 8 | 108 | 1.6 | 3.2 | 0.00 | 0.00 | 0.00 | 85 | 1019.3 |
| 20260502012704 | 8 | 108 | 1.6 | 3.2 | 0.00 | 0.00 | 0.00 | 85 | 1019.3 |
| 20260502012205 | 8 | 108 | 1.6 | 3.2 | 0.00 | 0.00 | 0.00 | 85 | 1019.4 |
| 20260502011205 | 8 | 108 | 1.6 | 3.2 | 0.00 | 0.00 | 0.00 | 85 | 1019.5 |
| 20260502010705 | 8 | 108 | 1.6 | 3.2 | 0.00 | 0.00 | 0.00 | 85 | 1019.6 |
| 20260502005705 | 8 | 108 | 1.6 | 4.8 | 0.00 | 0.00 | 0.00 | 85 | 1019.7 |
| 20260502005205 | 8 | 108 | 3.2 | 4.8 | 0.00 | 0.00 | 0.00 | 85 | 1019.8 |
| 20260502004705 | 8 | 108 | 3.2 | 4.8 | 0.00 | 0.00 | 0.00 | 85 | 1019.9 |
| 20260502004205 | 8 | 108 | 3.2 | 3.2 | 0.00 | 0.00 | 0.00 | 86 | 1019.9 |
| 20260502003705 | 8 | 108 | 3.2 | 4.8 | 0.00 | 0.00 | 0.00 | 86 | 1019.9 |
| 20260502003205 | 8 | 108 | 3.2 | 4.8 | 0.00 | 0.00 | 0.00 | 86 | 1020.0 |
| 20260502002704 | 8 | 108 | 3.2 | 4.8 | 0.00 | 0.00 | 0.00 | 86 | 1020.0 |
| 20260502002205 | 8 | 108 | 3.2 | 4.8 | 0.00 | 0.00 | 0.00 | 86 | 1020.1 |
| 20260502001705 | 8 | 108 | 1.6 | 3.2 | 0.00 | 0.00 | 0.00 | 86 | 1020.1 |
| 20260502001205 | 8 | 108 | 1.6 | 4.8 | 0.00 | 0.00 | 0.00 | 86 | 1020.2 |
| 20260502000704 | 8 | 105 | 3.2 | 4.8 | 0.00 | 0.00 | 0.00 | 86 | 1020.2 |
| 20260502000205 | 8 | 108 | 3.2 | 4.8 | 0.00 | 0.00 | 0.00 | 86 | 1020.2 |
| 20260501235705 | 8 | 108 | 3.2 | 4.8 | 0.00 | 0.00 | 0.00 | 86 | 1020.3 |
| 20260501235205 | 8 | 108 | 3.2 | 4.8 | 0.00 | 0.00 | 0.00 | 86 | 1020.3 |
| 20260501234704 | 8 | 108 | 3.2 | 3.2 | 0.00 | 0.00 | 0.00 | 85 | 1020.4 |
| 20260501234205 | 8 | 108 | 1.6 | 3.2 | 0.00 | 0.00 | 0.00 | 85 | 1020.4 |
| 20260501233705 | 8 | 108 | 1.6 | 3.2 | 0.00 | 0.00 | 0.00 | 85 | 1020.5 |
| 20260501233205 | 8 | 108 | 1.6 | 4.8 | 0.00 | 0.00 | 0.00 | 85 | 1020.5 |
| 20260501232705 | 8 | 108 | 3.2 | 4.8 | 0.00 | 0.00 | 0.00 | 85 | 1020.5 |
| 20260501232204 | 8 | 108 | 3.2 | 4.8 | 0.00 | 0.00 | 0.00 | 85 | 1020.6 |
| 20260501231705 | 8 | 108 | 1.6 | 3.2 | 0.00 | 0.00 | 0.00 | 84 | 1020.7 |
| 20260501231204 | 8 | 108 | 1.6 | 3.2 | 0.00 | 0.00 | 0.00 | 84 | 1020.7 |
| 20260501230705 | 9 | 108 | 3.2 | 4.8 | 0.00 | 0.00 | 0.00 | 84 | 1020.8 |
| 20260501230205 | 9 | 108 | 3.2 | 4.8 | 0.00 | 0.00 | 0.00 | 84 | 1020.8 |
| 20260501225205 | 9 | 108 | 3.2 | 4.8 | 0.00 | 0.00 | 0.00 | 84 | 1020.9 |
| 20260501224705 | 9 | 108 | 3.2 | 4.8 | 0.00 | 0.00 | 0.00 | 84 | 1020.9 |
| 20260501224204 | 9 | 108 | 3.2 | 4.8 | 0.00 | 0.00 | 0.00 | 83 | 1021.0 |
| 20260501223705 | 9 | 108 | 3.2 | 4.8 | 0.00 | 0.00 | 0.00 | 83 | 1021.0 |
| 20260501222705 | 9 | 108 | 3.2 | 4.8 | 0.00 | 0.00 | 0.00 | 83 | 1021.0 |
| 20260501222205 | 9 | 107 | 3.2 | 4.8 | 0.00 | 0.00 | 0.00 | 83 | 1021.1 |
| 20260501221705 | 9 | 108 | 3.2 | 4.8 | 0.00 | 0.00 | 0.00 | 83 | 1021.1 |
| 20260501221205 | 9 | 108 | 0.0 | 3.2 | 0.00 | 0.00 | 0.00 | 82 | 1021.2 |
| 20260501220205 | 9 | 108 | 1.6 | 4.8 | 0.00 | 0.00 | 0.00 | 81 | 1021.2 |
| 20260501215705 | 10 | 108 | 3.2 | 4.8 | 0.00 | 0.00 | 0.00 | 81 | 1021.2 |
| 20260501214705 | 10 | 108 | 3.2 | 4.8 | 0.00 | 0.00 | 0.00 | 80 | 1021.3 |
| 20260501214204 | 10 | 108 | 3.2 | 4.8 | 0.00 | 0.00 | 0.00 | 80 | 1021.3 |
| 20260501213705 | 10 | 108 | 1.6 | 3.2 | 0.00 | 0.00 | 0.00 | 79 | 1021.3 |
| 20260501213205 | 10 | 108 | 3.2 | 4.8 | 0.00 | 0.00 | 0.00 | 79 | 1021.3 |
| 20260501212704 | 10 | 108 | 3.2 | 4.8 | 0.00 | 0.00 | 0.00 | 79 | 1021.3 |
| 20260501212205 | 10 | 109 | 3.2 | 4.8 | 0.00 | 0.00 | 0.00 | 78 | 1021.4 |
| 20260501211705 | 10 | 109 | 3.2 | 4.8 | 0.00 | 0.00 | 0.00 | 77 | 1021.5 |
| 20260501210705 | 11 | 109 | 3.2 | 3.2 | 0.00 | 0.00 | 0.00 | 76 | 1021.6 |
| 20260501210204 | 11 | 109 | 1.6 | 3.2 | 0.00 | 0.00 | 0.00 | 75 | 1021.7 |
| 20260501205705 | 11 | 109 | 1.6 | 3.2 | 0.00 | 0.00 | 0.00 | 75 | 1021.7 |
| 20260501205205 | 11 | 109 | 3.2 | 4.8 | 0.00 | 0.00 | 0.00 | 75 | 1021.7 |
| 20260501204704 | 11 | 109 | 1.6 | 4.8 | 0.00 | 0.00 | 0.00 | 74 | 1021.7 |
| 20260501203705 | 11 | 109 | 1.6 | 3.2 | 0.00 | 0.00 | 0.00 | 73 | 1021.8 |
| 20260501203205 | 12 | 109 | 3.2 | 4.8 | 0.00 | 0.00 | 0.00 | 73 | 1021.8 |
| 20260501202205 | 12 | 109 | 1.6 | 4.8 | 0.00 | 0.00 | 0.00 | 71 | 1021.9 |
| 20260501201705 | 12 | 109 | 3.2 | 4.8 | 0.00 | 0.00 | 0.00 | 71 | 1021.9 |
| 20260501201204 | 12 | 109 | 3.2 | 4.8 | 0.00 | 0.00 | 0.00 | 70 | 1021.9 |
| 20260501200704 | 12 | 110 | 3.2 | 3.2 | 0.00 | 0.00 | 0.00 | 69 | 1022.0 |
| 20260501200205 | 13 | 110 | 0.0 | 3.2 | 0.00 | 0.00 | 0.00 | 68 | 1022.0 |
| 20260501195705 | 13 | 110 | 1.6 | 3.2 | 0.00 | 0.00 | 0.00 | 68 | 1022.0 |
| 20260501195205 | 13 | 110 | 1.6 | 4.8 | 0.00 | 0.00 | 0.00 | 67 | 1022.0 |
| 20260501194205 | 13 | 111 | 3.2 | 4.8 | 0.00 | 0.00 | 0.00 | 66 | 1022.0 |
| 20260501193705 | 13 | 113 | 3.2 | 4.8 | 0.00 | 0.00 | 0.00 | 65 | 1022.0 |
| 20260501193205 | 14 | 110 | 3.2 | 9.7 | 0.00 | 0.00 | 0.00 | 65 | 1022.0 |
| 20260501192205 | 14 | 142 | 4.8 | 11.3 | 0.00 | 0.00 | 0.00 | 64 | 1022.1 |
| 20260501191705 | 14 | 100 | 4.8 | 11.3 | 0.00 | 0.00 | 0.00 | 64 | 1022.1 |
| 20260501191204 | 15 | 102 | 4.8 | 9.7 | 0.00 | 0.00 | 0.00 | 63 | 1022.1 |
| 20260501190705 | 15 | 103 | 4.8 | 11.3 | 0.00 | 0.00 | 0.00 | 63 | 1022.1 |
| 20260501190205 | 15 | 107 | 4.8 | 9.7 | 0.00 | 0.00 | 0.00 | 63 | 1022.2 |
| 20260501185705 | 15 | 112 | 4.8 | 9.7 | 0.00 | 0.00 | 0.00 | 62 | 1022.2 |
| 20260501185205 | 16 | 116 | 4.8 | 11.3 | 0.00 | 0.00 | 0.00 | 62 | 1022.3 |
| 20260501184205 | 16 | 113 | 8.0 | 12.9 | 0.00 | 0.00 | 0.00 | 61 | 1022.4 |
| 20260501183705 | 16 | 108 | 8.0 | 11.3 | 0.00 | 0.00 | 0.00 | 60 | 1022.5 |
| 20260501183205 | 17 | 108 | 4.8 | 9.7 | 0.00 | 0.00 | 0.00 | 59 | 1022.6 |
| 20260501182705 | 17 | 105 | 4.8 | 9.7 | 0.00 | 0.00 | 0.00 | 58 | 1022.6 |
| 20260501182205 | 17 | 101 | 6.4 | 11.3 | 0.00 | 0.00 | 0.00 | 58 | 1022.6 |
| 20260501181705 | 17 | 108 | 8.0 | 12.9 | 0.00 | 0.00 | 0.00 | 57 | 1022.6 |
| 20260501181205 | 17 | 100 | 8.0 | 12.9 | 0.00 | 0.00 | 0.00 | 56 | 1022.7 |
| 20260501180704 | 17 | 107 | 8.0 | 14.5 | 0.00 | 0.00 | 0.00 | 56 | 1022.7 |
| 20260501174705 | 18 | 112 | 8.0 | 16.1 | 0.00 | 0.00 | 0.00 | 56 | 1022.7 |
| 20260501174205 | 18 | 99 | 11.3 | 19.3 | 0.00 | 0.00 | 0.00 | 55 | 1022.7 |
| 20260501173705 | 18 | 113 | 11.3 | 19.3 | 0.00 | 0.00 | 0.00 | 55 | 1022.7 |
| 20260501173205 | 18 | 102 | 9.7 | 14.5 | 0.00 | 0.00 | 0.00 | 55 | 1022.8 |
| 20260501172704 | 18 | 85 | 8.0 | 14.5 | 0.00 | 0.00 | 0.00 | 55 | 1022.8 |
| 20260501172205 | 18 | 101 | 8.0 | 14.5 | 0.00 | 0.00 | 0.00 | 54 | 1022.9 |
| 20260501171205 | 19 | 94 | 11.3 | 19.3 | 0.00 | 0.00 | 0.00 | 54 | 1023.0 |
| 20260501170705 | 19 | 88 | 14.5 | 22.5 | 0.00 | 0.00 | 0.00 | 53 | 1023.0 |
| 20260501170205 | 19 | 98 | 11.3 | 22.5 | 0.00 | 0.00 | 0.00 | 53 | 1023.1 |
| 20260501165705 | 19 | 104 | 11.3 | 20.9 | 0.00 | 0.00 | 0.00 | 53 | 1023.1 |
| 20260501165205 | 19 | 92 | 11.3 | 19.3 | 0.00 | 0.00 | 0.00 | 53 | 1023.2 |
| 20260501164705 | 20 | 90 | 9.7 | 19.3 | 0.00 | 0.00 | 0.00 | 53 | 1023.2 |
| 20260501164205 | 20 | 81 | 11.3 | 19.3 | 0.00 | 0.00 | 0.00 | 52 | 1023.3 |
| 20260501163705 | 20 | 102 | 9.7 | 19.3 | 0.00 | 0.00 | 0.00 | 52 | 1023.4 |